Regional Weather Roundup
Issued by NWS San Diego, CA

Home | Current Version | Previous Version | Text Only | Print | Product List | Glossary On
Versions: 1 2 3 4 5 6 7 8 9 10 11 12 13 14 15 16 17 18 19 20 21 22 23 24 25 26 27 28 29 30 31 32 33 34 35 36 37 38 39 40 41 42 43 44 45 46 47 48 49 50
000
ASUS46 KSGX 281810
RWRSGX

SAN DIEGO HOURLY WEATHER ROUNDUP
NATIONAL WEATHER SERVICE SAN DIEGO CA
1000 AM PST FRI NOV 28 2014

NOTE: "FAIR" INDICATES FEW OR NO CLOUDS BELOW 12,000 FEET WITH NO
SIGNIFICANT WEATHER AND/OR OBSTRUCTIONS TO VISIBILITY.

CAZ042-043-060-061-PZZ750-775-281900-

GREATER SAN DIEGO AREA

CITY           SKY/WX    TMP DP  RH WIND       PRES   REMARKS
LINDBERGH FLD  SUNNY     71  24  17 S3        30.01S
POINT LOMA       N/A     73  30  20 NE1         N/A
NATIONAL CITY    N/A     74  33  22 CALM      30.01S
CHULA VISTA      N/A     75  35  24 CALM      29.93S
IMPERIAL BEACH SUNNY     73  39  29 W5        30.00S
BROWN FIELD    SUNNY     76  20  12 SE3       30.01S
MIRAMAR MCAS   SUNNY     79  19  10 N5        30.00S
MONTGOMERY FLD SUNNY     76  25  15 CALM      30.01S

$$

NORTH SAN DIEGO COUNTY

CITY           SKY/WX    TMP DP  RH WIND       PRES   REMARKS
CAMP PENDLETON SUNNY     70  25  18 CALM      30.01S
OCEANSIDE AP   SUNNY     71  32  23 E3        29.99F
OCEANSIDE HBR    N/A     71  37  28 E2        30.02F
VISTA            N/A     70  32  25 CALM      29.99S
CARLSBAD       SUNNY     75  25  15 CALM      30.00S
DEL MAR          N/A     73  38  27 CALM      30.02S
LA JOLLA SCRIP   N/A     69  42  37 CALM      29.98S
FALLBROOK        N/A     74  26  16 CALM      30.02S
ESCONDIDO        N/A     73  35  25 CALM      30.01S
SAN MARCOS       N/A     73  31  21 CALM      29.99R
POWAY            N/A     72  40  31 CALM      30.02F

$$

EAST SAN DIEGO COUNTY

CITY           SKY/WX    TMP DP  RH WIND       PRES   REMARKS
RAMONA         NOT AVBL
SANTEE LAKES     N/A     69  37  30 CALM      30.02F
LA MESA          N/A     75  35  23 CALM      29.94F
JAMUL            N/A     79  31  17 CALM      29.99F
DESCANSO N       N/A     76  18  11 E1        29.92F
MT. LAGUNA OBS   N/A     66  14  13 CALM      29.77F
CAMPO            N/A     75  17  11 CALM      30.04F

$$

ORANGE COUNTY AND THE LOS ANGELES BASIN

CITY           SKY/WX    TMP DP  RH WIND       PRES   REMARKS
JOHN WAYNE AP  MOSUNNY   73  34  23 CALM      30.00S
LAKE FOREST FR   N/A     74  25  16 CALM      29.89S
SANTA ANA        N/A     75  46  35 CALM      29.95S
HUNTINGTON BCH   N/A     72  49  44 CALM      30.02S
LOS ALAMITOS   SUNNY     70  41  35 CALM      30.00S
FULLERTON      SUNNY     69  29  22 CALM      30.00R
LONG BEACH     SUNNY     69  53  56 CALM      30.00F
L.A. AP        MOSUNNY   69  38  32 E3        30.01R
L.A. DOWNTOWN  SUNNY     72  27  18 CALM      29.99F

$$

THE INLAND EMPIRE

CITY           SKY/WX    TMP DP  RH WIND       PRES   REMARKS
CORONA         SUNNY     64  32  30 CALM      30.03S
CHINO          MOSUNNY   68  34  28 CALM      30.03S
ONTARIO        MOSUNNY   70  25  18 CALM      30.02S
SAN BERNARDINO SUNNY     72  18  13 CALM      30.02F
RIVERSIDE AP   SUNNY     69  27  20 CALM      30.02S
RIV CYN CREST    N/A     73  42  33 CALM        N/A
MORENO VALLEY    N/A     76  30  18 SE1       29.22S
MARCH ARB      SUNNY     67  24  19 E2        30.04S
HORSETHIEF CYN   N/A     72  17  12 E3        30.02F
PERRIS           N/A     70  35  27 CALM      30.06S
MENIFEE          N/A     68  35  29 CALM      30.12S
HEMET EAST       N/A     74  25  16 CALM      30.00S
FRENCH VALLEY  FAIR      68  27  21 CALM      30.04S
TEMECULA         N/A     61  37  41 CALM      30.01F

$$

SAN BERNARDINO AND RIVERSIDE COUNTY MOUNTAINS

CITY           SKY/WX    TMP DP  RH WIND       PRES   REMARKS
BIG BEAR AP    SUNNY     61   7  11 W6        30.25S
ANGELUS OAKS     N/A     62  22  21 CALM      29.97F
PINE COVE        N/A     63  -2   7 W3        30.00S

$$

SOUTHERN DESERT INCLUDING THE COACHELLA VALLEY

CITY           SKY/WX    TMP DP  RH WIND       PRES   REMARKS
PALM SPRINGS   SUNNY     74  34  23 CALM      30.02F
PALM DESERT      N/A     73  35  25 CALM      30.32S
THERMAL        SUNNY     73  27  18 CALM      29.99F
BLYTHE         SUNNY     64  20  18 SW7       30.04S
IMPERIAL AP    SUNNY     70  28  21 CALM      29.99F
EL CENTRO NAS  SUNNY     71  27  19 W3        30.00S
YUMA AZ        SUNNY     72  22  15 NE14      30.00F
MEXICALI       SUNNY     73  19  13 N6        30.01

$$

UPPER DESERT

CITY           SKY/WX    TMP DP  RH WIND       PRES   REMARKS
VICTORVILLE AP   N/A     61  14  16 CALM      30.08F
HESPERIA         N/A     61  21  21 CALM      30.20F
APPLE VALLEY     N/A     62  19  19 CALM      30.12F
PALMDALE       SUNNY     56  18  22 CALM      30.09F
LANCASTER      SUNNY     51  16  24 CALM      30.09F
EDWARDS AFB    SUNNY     46   8  20 VRB1      30.07F
DAGGETT        SUNNY     58  13  17 W6        30.08F
29 PALMS N     SUNNY     58  16  19 CALM      30.14F
NEEDLES        SUNNY     64  22  20 N6        30.07F

$$

REGIONAL REPORTS

CITY           SKY/WX    TMP DP  RH WIND       PRES   REMARKS
SANTA BARBARA  SUNNY     67  55  65 S5        29.98S
SANDBERG       SUNNY     72  12  10 S10       30.15S
MT. WILSON       N/A     68   9  10 SW6         N/A
LAS VEGAS NV   MOSUNNY   57  22  25 S3        30.06F
PHOENIX AZ     SUNNY     73  27  18 SE7       30.04F
TIJUANA        SUNNY     75  16  10 CALM      30.03S
ENSENADA NW      N/A     72  32  23 W1        29.98R

$$

OFFSHORE ISLANDS

CITY           SKY/WX    TMP DP  RH WIND       PRES   REMARKS
CATALINA ARPT  SUNNY    N/A N/A N/A SW5       30.05S
SAN CLEMENTE I MOSUNNY   73  45  36 SW3       30.01S

$$

MARINE AND OFFSHORE BUOY REPORTS

STATION/POSITION SKY/WX   TEMP    WIND        PRES    SWELL
                          AIR SEA DIR/SP/G            HT/PER/DIR
                          (F)     (DEG/KT/KT) (MB)    (FT/S/D)
TANNER BANKS               64 66  320/  8/ 10 1015.8R   7/300/15
S CLEMENTE BASIN           69 67   CALM  /  2 1015.7R
SAN NICOLAS IS.               63                N/A     8/290/14
SO. S. ROSA ISLA           62 63  320/ 10/ 12 1015.2R   7/15
W. S. BARBARA CH           63 64  340/  8/ 10 1015.0R   7/290/15
M. S. BARBARA CH           61     100/  4/  4 1015.7
S. MONICA BASIN            61 66  110/  6/  8 1016.3R   3/260/15
S PEDRO CHANNEL               65                N/A     2/270/15
DANA POINT                    66                N/A     2/270/15
CMP PENDLETON NS              65                N/A     2/230/13
OCEANSIDE OFFSHR              66                N/A     2/220/13
TORREY PINES OTR              66                N/A     2/270/15
LA JOLLA 1                 68 65   10/  2/  2 1016.0F
MISSION BAY BUOY              66                N/A     2/280/15
SAN DIEGO BAY                 66              1016.4F
POINT LOMA SOUTH              66                N/A     2/280/17

$$




USA.gov is the U.S. government's official web portal to all federal, state and local government web resources and services.